FW9076 Weather Reports


Display with metric or nautical units.
time (UTC)temp
F
wind
direction
speed
MPH
gust
MPH
rain 1hr
in
rain 24hr
in
rain mn
in
humidity
%
barometer
mb
20260906051545 66 0 0.0 0.0 0.00 0.00 0.00 99 1015.7
20260906050108 66 0 0.0 0.0 0.00 0.00 0.00 98 1015.7
20260906044552 66 0 0.0 0.0 0.00 0.00 0.00 98 1015.6
20260906043050 67 0 0.0 0.0 0.00 0.00 0.00 98 1015.5
20260906041550 67 0 0.0 0.0 0.00 0.00 0.00 98 1015.5
20260906040048 67 0 0.0 0.0 0.00 0.00 0.00 98 1015.7
20260906034552 67 0 0.0 0.0 0.00 0.00 0.00 98 1015.9
20260906033101 68 0 0.0 0.0 0.00 0.00 0.00 98 1016.0
20260906031545 68 0 0.0 0.0 0.00 0.00 0.00 98 1016.1
20260906030047 68 0 0.0 0.0 0.00 0.00 0.00 98 1015.8
20260906024555 68 0 0.0 0.0 0.00 0.00 0.00 98 1015.9
20260906023050 68 0 0.0 0.0 0.00 0.00 0.00 98 1015.5
20260906021551 69 0 0.0 0.0 0.00 0.00 0.00 98 1015.5
20260906020056 69 0 0.0 0.0 0.00 0.00 0.00 97 1015.6
20260906014556 69 0 0.0 0.0 0.00 0.00 0.00 97 1015.5
20260906013049 69 0 0.0 0.0 0.00 0.00 0.00 97 1015.6
20260906011546 70 0 0.0 0.0 0.00 0.00 0.00 96 1015.3
20260906010055 70 0 0.0 0.0 0.00 0.00 0.00 96 1015.1
20260906004546 71 0 0.0 0.0 0.00 0.00 0.00 96 1014.9
20260906003045 71 0 0.0 0.0 0.00 0.00 0.00 95 1014.5
20260906001556 72 0 0.0 0.0 0.00 0.00 0.00 95 1014.4
20260906000051 73 0 0.0 0.0 0.00 0.00 0.00 94 1014.2
20260905234609 74 0 0.0 0.0 0.00 0.00 0.00 93 1014.1
20260905233046 75 0 0.0 0.0 0.00 0.00 0.00 93 1014.2
20260905231556 76 0 0.0 0.0 0.00 0.00 0.00 92 1014.0
20260905230112 77 0 0.0 0.0 0.00 0.00 0.00 92 1014.0
20260905224558 77 0 0.0 0.0 0.00 0.00 0.00 91 1013.9
20260905223055 78 0 0.0 1.0 0.00 0.00 0.00 89 1013.9
20260905221556 78 0 0.0 0.0 0.00 0.00 0.00 88 1013.9
20260905220050 79 0 0.0 1.0 0.00 0.00 0.00 86 1013.9
20260905214545 80 0 0.0 1.0 0.00 0.00 0.00 83 1014.0
20260905213053 80 0 0.0 1.0 0.00 0.00 0.00 81 1013.9
20260905211554 79 0 0.0 0.0 0.00 0.00 0.00 82 1013.9
20260905210058 80 0 0.0 0.0 0.00 0.00 0.00 80 1013.9
20260905204556 80 0 0.0 1.0 0.00 0.00 0.00 79 1014.0
20260905203100 81 0 0.0 0.0 0.00 0.00 0.00 82 1013.9
20260905201558 80 0 0.0 1.0 0.00 0.00 0.00 78 1014.2
20260905200105 77 0 0.0 1.0 0.00 0.00 0.00 86 1014.4
20260905194553 76 0 0.0 0.0 0.00 0.00 0.00 93 1014.4
20260905193105 74 0 0.0 0.0 0.00 0.00 0.00 94 1014.7
20260905191546 74 0 0.0 0.0 0.00 0.00 0.00 94 1014.6
20260905190056 72 0 0.0 0.0 0.00 0.00 0.00 96 1014.8
20260905184603 71 0 0.0 0.0 0.00 0.00 0.00 94 1014.7
20260905183055 72 0 0.0 0.0 0.00 0.00 0.00 93 1014.2
20260905181558 73 0 0.0 0.0 0.00 0.00 0.00 91 1014.9
20260905180056 74 0 0.0 1.0 0.00 0.00 0.00 88 1015.6
20260905174551 76 238 0.0 1.0 0.00 0.00 0.00 83 1016.3
20260905173046 78 0 0.0 2.0 0.00 0.00 0.00 84 1016.5
20260905171548 79 76 2.0 4.0 0.00 0.00 0.00 87 1016.5
20260905170046 81 0 0.0 0.0 0.00 0.00 0.00 88 1016.7
20260905164553 84 0 0.0 0.0 0.00 0.00 0.00 85 1016.5
20260905163054 87 0 0.0 1.0 0.00 0.00 0.00 77 1016.5
20260905161557 86 232 0.0 1.0 0.00 0.00 0.00 78 1016.3
20260905160057 85 0 0.0 0.0 0.00 0.00 0.00 84 1016.6
20260905154602 87 0 0.0 1.0 0.00 0.00 0.00 82 1016.7
20260905153049 87 232 0.0 1.0 0.00 0.00 0.00 79 1016.4
20260905151558 86 0 0.0 0.0 0.00 0.00 0.00 87 1016.4
20260905150100 83 0 0.0 1.0 0.00 0.00 0.00 90 1016.2
20260905144550 81 0 0.0 0.0 0.00 0.00 0.00 93 1016.3
20260905143049 79 0 0.0 0.0 0.00 0.00 0.00 95 1016.4
20260905141556 77 0 0.0 0.0 0.00 0.00 0.00 96 1016.4
20260905140059 75 0 0.0 0.0 0.00 0.00 0.00 98 1016.5
20260905134552 73 0 0.0 0.0 0.00 0.00 0.00 99 1016.4
20260905133046 72 0 0.0 0.0 0.00 0.00 0.00 99 1016.7
20260905131556 71 0 0.0 0.0 0.00 0.00 0.00 100 1017.0
20260905130047 70 0 0.0 0.0 0.00 0.00 0.00 100 1017.0
20260905124547 69 0 0.0 0.0 0.00 0.00 0.00 100 1017.0
20260905123051 68 0 0.0 0.0 0.00 0.00 0.00 100 1017.0
20260905121601 68 0 0.0 0.0 0.00 0.00 0.00 100 1017.0
20260905120056 67 0 0.0 0.0 0.00 0.00 0.00 100 1016.8
20260905114552 67 0 0.0 0.0 0.00 0.00 0.00 99 1016.7
20260905113104 67 0 0.0 0.0 0.00 0.00 0.00 99 1016.6
20260905111557 67 0 0.0 0.0 0.00 0.00 0.00 99 1016.3
20260905110046 67 0 0.0 0.0 0.00 0.00 0.00 99 1016.3
20260905104557 67 0 0.0 0.0 0.00 0.00 0.00 99 1016.1
20260905103052 67 0 0.0 0.0 0.00 0.00 0.00 99 1016.0
20260905101547 67 0 0.0 0.0 0.00 0.00 0.00 99 1016.0
20260905100047 67 0 0.0 0.0 0.00 0.00 0.00 99 1016.0
20260905094554 68 0 0.0 0.0 0.00 0.00 0.00 99 1015.8
20260905093055 68 0 0.0 0.0 0.00 0.00 0.00 99 1015.9
20260905091546 68 0 0.0 0.0 0.00 0.00 0.00 99 1015.8
20260905090047 68 0 0.0 0.0 0.00 0.00 0.00 99 1016.0
20260905084556 68 0 0.0 0.0 0.00 0.00 0.00 99 1015.9
20260905083054 69 0 0.0 0.0 0.00 0.00 0.00 99 1016.2
20260905081545 69 0 0.0 0.0 0.00 0.00 0.00 99 1016.2
20260905080048 69 0 0.0 0.0 0.00 0.00 0.00 99 1016.4
20260905074547 69 0 0.0 0.0 0.00 0.00 0.00 99 1016.7
20260905073051 69 0 0.0 0.0 0.00 0.00 0.00 99 1016.7
20260905071549 69 0 0.0 0.0 0.00 0.00 0.00 99 1016.8
20260905070051 70 0 0.0 0.0 0.00 0.00 0.00 99 1017.0
20260905064551 70 0 0.0 0.0 0.00 0.00 0.00 99 1017.1
20260905063052 70 0 0.0 0.0 0.00 0.00 0.00 99 1017.2
20260905061603 70 0 0.0 0.0 0.00 0.00 0.00 99 1017.4
20260905060059 70 0 0.0 0.0 0.00 0.00 0.00 98 1017.5
20260905054545 71 0 0.0 0.0 0.00 0.00 0.00 98 1017.8
20260905053047 71 0 0.0 0.0 0.00 0.00 0.00 98 1017.8